Regional Weather Roundup
Issued by NWS

Home | Current Version | Previous Version | Text Only | Print | Product List | Glossary Off
Versions: 1 2 3 4 5 6 7 8 9 10 11 12 13 14 15 16 17 18 19 20 21 22 23 24 25 26 27 28 29 30 31 32 33 34 35 36 37 38 39 40 41 42 43 44 45 46 47 48 49 50

332
ASUS43 KFSD 281010
RWRSD

WEATHER ROUNDUP FOR SOUTH DAKOTA
NATIONAL WEATHER SERVICE SIOUX FALLS SD
500 AM CDT SAT MAY 28 2016

NOTE: "FAIR" INDICATES FEW OR NO CLOUDS BELOW 12,000 FEET WITH NO
SIGNIFICANT WEATHER AND/OR OBSTRUCTIONS TO VISIBILITY.


SDZ001>005-009-010-012>017-281100-
NORTHWEST AND NORTH CENTRAL SOUTH DAKOTA

CITY           SKY/WX    TMP DP  RH WIND       PRES   REMARKS
BUFFALO          N/A     53  46  77 S3        29.80F
FAITH            N/A     50  46  86 NE5       29.84F
MOBRIDGE       PTCLDY    54  50  86 NW5       29.80R
$$

SDZ012>016-024>037-041>051-057-063-072>074-281100-
SOUTHWEST AND SOUTH CENTRAL SOUTH DAKOTA

CITY           SKY/WX    TMP DP  RH WIND       PRES   REMARKS
RAPID CTY ARPT CLEAR     44  41  89 NW9       29.87S
PIERRE         CLOUDY    57  53  86 CALM      29.79R
CUSTER         CLEAR     43  39  86 NW7       29.93F
ELLSWORTH AFB  CLEAR     48  44  84 W6        29.87S
PHILIP         PTCLDY    47  46  97 W8        29.83F
PINE RIDGE     FOG       39  37  92 CALM      29.88S VSB 1/2
WINNER         FAIR      57  54  89 NW5       29.78F
$$

SDZ004>011-016>023-039-040-281100-
NORTHEAST SOUTH DAKOTA

CITY           SKY/WX    TMP DP  RH WIND       PRES   REMARKS
ABERDEEN       CLOUDY    60  57  89 NE6       29.78F
WATERTOWN      CLOUDY    60  58  92 NE7       29.75F FOG
BROOKINGS      CLOUDY    60  59  96 NE9       29.74S FOG
SISSETON         N/A     60  57  89 NE7       29.77S
$$

SDZ017-020-022-023-036>040-048>070-281100-
SOUTHEAST SOUTH DAKOTA

CITY           SKY/WX    TMP DP  RH WIND       PRES   REMARKS
SIOUX FALLS    RAIN      62  60  93 E5        29.73R FOG
HURON          CLOUDY    59  57  93 N7        29.75S
CHAMBERLAIN    CLOUDY    60  58  92 N7        29.77S
MITCHELL       TSTM      60  59  96 NW7       29.76R FOG
YANKTON        CLOUDY    59  55  88 NW9       29.72R
$$

ABBREVIATIONS USED IN REMARKS
   TC - TEMPERATURE IN CELSIUS
  WCI - WIND CHILL INDEX
   HX - HEAT INDEX
  VSB - VISIBILITY





USA.gov is the U.S. government's official web portal to all federal, state and local government web resources and services.